date,time,DOY,Ta_1_1_1,RH_1_1_1,LWin_1_1_1,LWout_1_1_1,SWin_1_1_1,SWout_1_1_1,PPFD_1_1_1,SWC_1_1_1,Ts_1_1_1
[yyyy-mm-dd],[HH:MM],[ddd.ddd],[K],[%],[W+1m-2],[W+1m-2],[W+1m-2],[W+1m-2],[µmol+1m-2s-1],[m+3m-3],[K]
2013-01-28,00:30,28.020,269.62433333333331,96.313999999999979,-5.8770000000000007,-7.3106666666666653,-0.49399999999999999,-0.52533333333333343,3.33333333333333355E-003,-9999.0,279.90999999999991
2013-01-28,01:00,28.041,269.64766666666668,96.616333333333301,-6.4453333333333340,-7.2663333333333355,-0.63633333333333331,-0.63566666666666671,3.66666666666666616E-003,-9999.0,279.90999999999991
2013-01-28,01:30,28.062,269.63666666666666,96.852333333333306,-6.5860000000000012,-7.3133333333333326,-0.67233333333333334,-0.64899999999999991,5.33333333333333316E-003,-9999.0,279.90999999999991
2013-01-28,02:00,28.083,269.62133333333333,96.866666666666646,-7.2853333333333321,-7.9353333333333316,-0.79800000000000004,-0.78533333333333355,8.66666666666666627E-003,-9999.0,279.90999999999991
2013-01-28,02:30,28.104,269.61866666666668,96.820999999999970,-7.0743333333333318,-8.2366666666666681,-0.75033333333333330,-0.74366666666666670,1.13333333333333359E-002,-9999.0,279.90999999999991
2013-01-28,03:00,28.124,269.65166666666664,96.811666666666682,-7.5613333333333346,-9.0436666666666667,-0.81333333333333313,-0.88100000000000034,5.66666666666666621E-003,-9999.0,279.90999999999991
2013-01-28,03:30,28.145,269.67233333333337,96.739333333333306,-8.3929999999999989,-9.9024999999999999,-0.94933333333333347,-1.1893333333333334,8.33333333333333495E-003,-9999.0,279.90999999999991
2013-01-28,04:00,28.166,269.64166666666665,96.672333333333356,-8.2773333333333330,-9999.0,-0.92299999999999993,-1.2123333333333333,8.33333333333333322E-003,-9999.0,279.90999999999991
2013-01-28,04:30,28.187,269.67933333333332,96.647666666666694,-8.9183333333333330,-9999.0,-0.97333333333333327,-1.3669999999999998,3.66666666666666616E-003,-9999.0,279.90999999999991
2013-01-28,05:00,28.208,269.65966666666668,96.615333333333339,-9.5623333333333331,-9999.0,-1.1216666666666668,-1.5476666666666667,8.00000000000000190E-003,-9999.0,279.90999999999991
2013-01-28,05:30,28.229,269.55066666666670,96.629666666666651,-9.6373333333333324,-9999.0,-1.3770000000000002,-1.5846666666666667,1.46666666666666716E-002,-9999.0,279.90999999999991
2013-01-28,06:00,28.249,269.51600000000008,96.781666666666666,-8.7533333333333339,-9999.0,-1.0613333333333335,-1.2260000000000000,2.66666666666666614E-003,-9999.0,279.90999999999991
2013-01-28,06:30,28.270,269.53666666666669,96.727333333333320,-9.6293333333333333,-9999.0,-1.2036666666666667,-1.5286666666666664,5.66666666666666794E-003,-9999.0,279.90999999999991
2013-01-28,07:00,28.291,269.47199999999992,96.719999999999985,-9.6853571428571481,-9999.0,-1.3619999999999997,-1.5493333333333332,3.09999999999999963E-002,-9999.0,279.90999999999991
2013-01-28,07:30,28.312,269.41999999999996,96.664000000000016,-8.2059999999999995,-9999.0,-0.83833333333333304,-0.19599999999999998,2.6386666666666669,-9999.0,279.90999999999991
2013-01-28,08:00,28.333,269.40866666666659,96.610999999999962,-7.3119999999999985,-9999.0,1.7856666666666667,8.4209999999999994,22.954333333333341,-9999.0,279.90999999999991
2013-01-28,08:30,28.354,269.44833333333338,96.694333333333319,-7.8206666666666651,-9999.0,7.5540000000000003,28.761333333333333,66.874666666666670,-9999.0,279.90999999999991
2013-01-28,09:00,28.374,269.65399999999994,96.715333333333305,-7.0553333333333343,-9999.0,16.954999999999998,60.764666666666663,131.35300000000001,-9999.0,279.90999999999991
2013-01-28,09:30,28.395,269.85866666666669,96.743333333333339,-7.0696666666666665,-9999.0,27.580666666666662,97.548666666666676,208.29633333333328,-9999.0,279.90999999999991
2013-01-28,10:00,28.416,270.18599999999998,96.822333333333333,-7.8050000000000015,-9999.0,38.312666666666665,136.92233333333334,289.98566666666665,-9999.0,279.90999999999991
2013-01-28,10:30,28.437,270.50100000000003,96.513999999999996,-9.2662500000000012,-9999.0,49.323333333333338,178.92966666666672,378.88633333333325,-9999.0,279.90999999999991
2013-01-28,11:00,28.458,270.87099999999998,95.586999999999989,-9999.0,-9999.0,52.953666666666656,193.95100000000005,410.66766666666655,-9999.0,279.90999999999991
2013-01-28,11:30,28.479,271.32100000000003,92.436999999999998,-9999.0,-9999.0,61.977333333333313,232.28800000000001,487.87866666666667,-9999.0,279.90999999999991
2013-01-28,12:00,28.499,271.29900000000004,91.149666666666661,-9.8014285714285716,-9999.0,56.648333333333341,211.28599999999997,446.73233333333343,-9999.0,279.90999999999991
2013-01-28,12:30,28.520,271.57966666666670,89.645666666666685,-9.7833333333333332,-9999.0,55.858666666666679,212.08733333333336,446.40499999999997,-9999.0,279.90999999999991
2013-01-28,13:00,28.541,271.57433333333336,91.598666666666688,-8.0432142857142868,-9999.0,36.863333333333323,139.69500000000002,303.83866666666665,-9999.0,279.90999999999991
2013-01-28,13:30,28.562,271.32066666666674,90.974333333333334,-8.3704761904761913,-9999.0,40.587666666666678,156.95866666666669,336.47800000000007,-9999.0,279.90999999999991
2013-01-28,14:00,28.583,271.54733333333331,88.875666666666660,-9999.0,-9999.0,62.625999999999998,244.24566666666669,506.66900000000004,-9999.0,279.90999999999991
2013-01-28,14:30,28.604,271.73700000000002,89.176333333333332,-9999.0,-9999.0,43.389000000000003,172.72766666666672,365.07333333333338,-9999.0,279.90999999999991
2013-01-28,15:00,28.624,271.66366666666670,91.052999999999969,-8.3774074074074036,-9999.0,18.221666666666671,73.655333333333331,162.60766666666669,-9999.0,279.90999999999991
2013-01-28,15:30,28.645,271.87433333333337,90.767333333333326,-7.8956666666666662,-9999.0,25.956666666666653,102.10400000000001,214.13633333333334,-9999.0,279.90999999999991
2013-01-28,16:00,28.666,271.88066666666674,91.036000000000001,-8.3876666666666662,-9999.0,15.099666666666668,60.983666666666664,130.03966666666668,-9999.0,279.90999999999991
2013-01-28,16:30,28.687,271.58566666666673,92.434666666666672,-7.6133333333333324,-9999.0,4.4126666666666674,19.686333333333334,48.978333333333339,-9999.0,279.90999999999991
2013-01-28,17:00,28.708,271.44533333333328,93.523666666666671,-8.3021428571428562,-9999.0,0.77966666666666684,3.5640000000000001,14.930666666666667,-9999.0,279.90999999999991
2013-01-28,17:30,28.729,271.19833333333332,94.102333333333334,-9.8699999999999992,-9999.0,0.14099999999999996,-2.7916666666666665,1.7956666666666670,-9999.0,279.90999999999991
2013-01-28,18:00,28.749,270.91366666666670,95.359666666666683,-9.9000000000000004,-9999.0,-1.76666666666666743E-002,-3.1543333333333337,1.30000000000000046E-002,-9999.0,279.90999999999991
2013-01-28,18:30,28.770,270.62633333333332,96.212999999999994,-9.7019999999999982,-9999.0,-0.10099999999999999,-3.0406666666666662,4.33333333333333227E-003,-9999.0,279.90999999999991
2013-01-28,19:00,28.791,270.52366666666671,96.385333333333335,-8.6933333333333316,-9999.0,-6.76666666666666805E-002,-2.3326666666666664,6.00000000000000186E-003,-9999.0,279.90999999999991
2013-01-28,19:30,28.812,270.87133333333333,94.941000000000017,-8.4783333333333317,-9999.0,0.11600000000000002,-2.2336666666666667,5.00000000000000010E-003,-9999.0,279.90999999999991
2013-01-28,20:00,28.833,271.07700000000006,94.869333333333344,-7.5436666666666676,-9999.0,-6.43333333333333535E-002,-1.6199999999999999,4.33333333333333227E-003,-9999.0,279.90999999999991
2013-01-28,20:30,28.854,271.18466666666671,95.389333333333340,-6.9903333333333340,-9999.0,-0.11033333333333331,-1.5526666666666671,6.00000000000000012E-003,-9999.0,279.90999999999991
2013-01-28,21:00,28.874,271.14766666666662,95.543333333333351,-6.6129999999999978,-9999.0,-9.76666666666666516E-002,-1.5153333333333332,5.66666666666666707E-003,-9999.0,279.90999999999991
2013-01-28,21:30,28.895,271.04200000000009,95.817999999999984,-6.1856666666666653,-9999.0,-0.18033333333333335,-1.1339999999999999,3.66666666666666616E-003,-9999.0,279.90999999999991
2013-01-28,22:00,28.916,270.85566666666665,96.725666666666669,-4.9900000000000002,-9999.0,-0.27400000000000002,-0.57066666666666677,6.33333333333333404E-003,-9999.0,279.90999999999991
2013-01-28,22:30,28.937,270.84400000000016,97.084999999999994,-5.1963333333333335,-9999.0,-0.24500000000000000,-0.67099999999999993,5.66666666666666534E-003,-9999.0,279.90999999999991
2013-01-28,23:00,28.958,270.88833333333326,97.491333333333344,-5.3549999999999995,-9.8600000000000012,-0.32300000000000012,-0.52400000000000002,1.66666666666666677E-003,-9999.0,279.90999999999991
2013-01-28,23:30,28.979,271.01333333333338,97.608999999999995,-5.2316666666666674,-9.1939130434782594,-0.30133333333333323,-0.45166666666666655,4.00000000000000008E-003,-9999.0,279.90999999999991
2013-01-29,00:00,29.000,271.12599999999998,97.313666666666691,-5.1463333333333328,-8.8414285714285707,-0.26733333333333331,-0.50433333333333341,1.66666666666666677E-003,-9999.0,279.90999999999991
